Regional Weather Roundup
Issued by NWS New Orleans/Baton Rouge, LA

Home | Current Version | Previous Version | Text Only | Print | Product List | Glossary Off
Versions: 1 2 3 4 5 6 7 8 9 10 11 12 13 14 15 16 17 18 19 20 21 22 23 24 25 26 27 28 29 30 31 32 33 34 35 36 37 38 39 40 41 42 43 44 45 46 47 48 49 50

376
ASUS44 KLIX 301001
RWRLIX
NEW ORLEANS REGIONAL WEATHER ROUNDUP
NATIONAL WEATHER SERVICE NEW ORLEANS LA
500 AM CDT TUE SEP 30 2014

NOTE: "FAIR" INDICATES FEW OR NO CLOUDS BELOW 12,000 FEET WITH NO
      SIGNIFICANT WEATHER AND/OR OBSTRUCTIONS TO VISIBILITY.
      SKY/WX - SKY CONDITION AND SIGNIFICANT WEATHER.
      TMP - AIR TEMPERATURE.     DP    - DEWPOINT TEMPERATURE.
      RH  - RELATIVE HUMIDITY.   PRES  - PRESSURE.
      HI  - HEAT INDEX.          WCI   - WIND CHILL INDEX.

*  THESE STATIONS ARE NOT NWS OR FAA STATIONS AND ARE NOT UNDER
   NWS QUALITY CONTROL.

LAZ038-040-048-061>063-065>067-069-301100-
SOUTHEAST LOUISIANA

CITY           SKY/WX    TMP DP  RH WIND       PRES   REMARKS
N.O. AUDUBON   NOT AVBL
N.O. INTL ARPT PTCLDY    75  72  90 NE6       29.87R
N.O. LAKEFRONT CLEAR     77  73  87 NE6       29.87S
N.O. DOWNTOWN*   N/A     75  70  83 N5        29.87S
SLIDELL        PTCLDY    68  66  93 N3        29.87S
BATON ROUGE    CLEAR     70  69  97 CALM      29.87S
BOOTHVILLE     CLEAR     77  74  90 N3        29.86R
BELLE CHASSE   CLEAR     70  67  90 CALM      29.86S
BOGALUSA*        N/A     70  67  90 CALM      29.90S FOG
GALLIANO*      NOT AVBL
NEW ROADS*     CLOUDY    69  68  98 CALM      29.88S FOG
GONZALES*        N/A     70  70 100 CALM      29.87S
HAMMOND*       NOT AVBL
HOUMA*         CLEAR    N/A N/A N/A CALM      29.87R FOG
PORT FOURCHON* SUNNY     77  75  94 N3        29.89S

$$

MSZ070-080>082-301100-
SOUTHERN MISSISSIPPI

CITY           SKY/WX    TMP DP  RH WIND       PRES   REMARKS
MCCOMB         CLEAR     70  66  87 NE3       29.90R
GULFPORT       CLEAR     71  69  93 CALM      29.87R
BILOXI         CLEAR     72  72 100 N3        29.87S
PASCAGOULA     CLEAR     69  68  96 CALM      29.87R FOG

$$

COASTAL OBSERVATIONS
LAKE AND NEARSHORE STATIONS

STATION/POSITION TIME  TEMP    WIND        PRES    WAVE
                       AIR SEA DIR/SP/G            HT/PER
                 (UTC) (F)     (DEG/KT/KT) (MB)    (FT/S)
PASCAGOULA       0900   73      40/  6/  8 1010.7
WAVELAND YACHT   0900   74      50/  7/  8 1010.8
GRAND ISLE       0900   78 80   60/  3/  3 1011.6
SOUTHWEST PASS   0900   78 86  330/  5/  5 1011.2
NEW CANAL        0900   78 77   40/  7/  7 1011.8
SHELL BEACH      0900   78 75   10/  6/  7 1011.1

OFFSHORE STATIONS

STATION/POSITION TIME  TEMP    WIND        PRES    WAVE
                       AIR SEA DIR/SP/G            HT/PER
                 (UTC) (F)     (DEG/KT/KT) (MB)    (FT/S)
64 S DAUPHIN ISL 0939   79 82   60/ 10/ 12 1010.9    2/ 4

$$




USA.gov is the U.S. government's official web portal to all federal, state and local government web resources and services.